Change the Weather History Date:

Saturday, December 8, 2012

  Actual Average (KLOZ) Record (KLOZ)
Temperature  
Mean Temperature 62 °F 40 °F  
Max Temperature 69 °F 50 °F 71 °F (1978)
Min Temperature 55 °F 31 °F 11 °F (1958)
Degree Days  
Heating Degree Days 3 25  
Month to date heating degree days 191  
Since 1 July heating degree days 1021  
Cooling Degree Days 0 0  
Month to date cooling degree days 0  
Growing Degree Days 12 (Base 50)    
Moisture  
Dew Point 55 °F    
Average Humidity 80    
Maximum Humidity 94    
Minimum Humidity 60    
Precipitation  
Precipitation 0.00 in 0.14 in 3.55 in (1978)
Month to date precipitation 1.15  
Sea Level Pressure  
Sea Level Pressure 29.97 in    
Wind  
Wind Speed 5 mph (South)    
Max Wind Speed 13 mph    
Max Gust Speed 18 mph    
Visibility 10 miles    
Events      
T = Trace of Precipitation, MM = Missing Value Source: NWS Daily Summary

Daily Weather History Graph

Daily Weather History Graph

Search for Another Location

Airport or City:

Trip Planner

Search our weather history database for the weather conditions in past years. The results will help you decide how hot, cold, wet, or windy it might be!

Date:

Astronomy

Dec. 08, 2012 Rise Set
Actual Time 6:35 AM CST 4:19 PM CST
Civil Twilight 6:06 AM CST 4:47 PM CST
Nautical Twilight 5:34 AM CST 5:19 PM CST
Astronomical Twilight 5:02 AM CST 5:51 PM CST
Moon 1:05 AM CST (12/8) 12:42 PM CST (12/8)
Length of Visible Light 10h 41m
Length of Day
9h 44m
Waning Crescent, 28% of the Moon is Illuminated
Dec 8
Waning Crescent
Dec 13
New
Dec 19
First Quarter
Dec 28
Full
Jan 4
Last Quarter

Hourly Weather History & Observations

Time (CST) Temp. Dew Point Humidity Pressure Visibility Wind Dir Wind Speed Gust Speed Precip Events Conditions
12:15 AM 57.2 °F - N/A% 29.96 in 10.0 mi SSW 3.5 mph - N/A   Scattered Clouds
12:35 AM 57.2 °F 53.6 °F 88% 29.96 in 10.0 mi South 5.8 mph - N/A   Mostly Cloudy
12:55 AM 59.0 °F 53.6 °F 82% 29.96 in 10.0 mi South 5.8 mph - N/A   Unknown
1:15 AM 59.0 °F 53.6 °F 82% 29.96 in 10.0 mi South 5.8 mph - N/A   Overcast
1:35 AM 59.0 °F 53.6 °F 82% 29.96 in 10.0 mi SSE 3.5 mph - N/A   Overcast
1:55 AM 59.0 °F 53.6 °F 82% 29.96 in 10.0 mi South 4.6 mph - N/A   Overcast
2:15 AM 59.0 °F 53.6 °F 82% 29.95 in 10.0 mi South 6.9 mph - N/A   Overcast
2:35 AM 59.0 °F 53.6 °F 82% 29.95 in 10.0 mi South 6.9 mph - N/A   Overcast
2:55 AM 57.2 °F 53.6 °F 88% 29.95 in 1.0 mi Calm Calm - N/A   Overcast
3:15 AM 57.2 °F 53.6 °F 88% 29.95 in 10.0 mi Calm Calm - N/A   Overcast
3:35 AM 57.2 °F 53.6 °F 88% 29.95 in 10.0 mi Calm Calm - N/A   Overcast
3:55 AM 57.2 °F 53.6 °F 88% 29.96 in 10.0 mi Calm Calm - N/A   Overcast
4:15 AM 57.2 °F 53.6 °F 88% 29.95 in 10.0 mi Calm Calm - N/A   Overcast
4:35 AM 55.4 °F 53.6 °F 94% 29.95 in 10.0 mi Calm Calm - N/A   Mostly Cloudy
5:15 AM 57.2 °F 53.6 °F 88% 29.96 in 10.0 mi South 5.8 mph - N/A   Overcast
5:35 AM 59.0 °F 53.6 °F 82% 29.96 in 10.0 mi Calm Calm - N/A   Overcast
5:55 AM 57.2 °F 53.6 °F 88% 29.97 in 10.0 mi South 6.9 mph - N/A   Mostly Cloudy
6:15 AM 57.2 °F 53.6 °F 88% 29.97 in 10.0 mi South 6.9 mph - N/A   Scattered Clouds
6:35 AM 57.2 °F 53.6 °F 88% 29.98 in 10.0 mi South 5.8 mph - N/A   Scattered Clouds
6:55 AM 57.2 °F 53.6 °F 88% 29.98 in 10.0 mi South 6.9 mph - N/A   Mostly Cloudy
7:15 AM 57.2 °F 53.6 °F 88% 29.98 in 10.0 mi South 5.8 mph - N/A   Scattered Clouds
7:35 AM 57.2 °F 53.6 °F 88% 29.98 in 10.0 mi South 8.1 mph - N/A   Clear
7:55 AM 57.2 °F 53.6 °F 88% 29.99 in 10.0 mi South 6.9 mph - N/A   Mostly Cloudy
8:15 AM 59.0 °F 53.6 °F 82% 29.99 in 10.0 mi South 6.9 mph - N/A   Mostly Cloudy
8:35 AM 59.0 °F 53.6 °F 82% 29.99 in 10.0 mi South 9.2 mph - N/A   Overcast
8:55 AM 60.8 °F 53.6 °F 77% 29.99 in 10.0 mi SSW 6.9 mph - N/A   Mostly Cloudy
9:15 AM 60.8 °F 53.6 °F 77% 29.99 in 10.0 mi South 8.1 mph - N/A   Scattered Clouds
9:35 AM 60.8 °F 53.6 °F 77% 29.99 in 10.0 mi South 11.5 mph - N/A   Clear
9:55 AM 62.6 °F 55.4 °F 77% 29.99 in 10.0 mi South 12.7 mph 17.3 mph N/A   Clear
10:15 AM 62.6 °F 55.4 °F 77% 29.98 in 10.0 mi South 8.1 mph - N/A   Scattered Clouds
10:35 AM 62.6 °F 55.4 °F 77% 29.98 in 10.0 mi South 6.9 mph - N/A   Scattered Clouds
10:55 AM 64.4 °F 55.4 °F 73% 29.97 in 10.0 mi South 8.1 mph - N/A   Scattered Clouds
11:15 AM 64.4 °F 55.4 °F 73% 29.96 in 10.0 mi South 9.2 mph - N/A   Clear
11:35 AM 64.4 °F 55.4 °F 73% 29.95 in 10.0 mi South 5.8 mph - N/A   Clear
11:55 AM 66.2 °F 55.4 °F 68% 29.95 in 10.0 mi South 8.1 mph - N/A   Scattered Clouds
12:15 PM 68.0 °F 55.4 °F 64% 29.94 in 10.0 mi South 9.2 mph - N/A   Scattered Clouds
12:35 PM 66.2 °F 55.4 °F 68% 29.95 in 10.0 mi Calm Calm - N/A   Mostly Cloudy
12:55 PM 69.8 °F 55.4 °F 60% 29.94 in 10.0 mi WSW 4.6 mph - N/A   Mostly Cloudy
1:15 PM 69.8 °F 55.4 °F 60% 29.93 in 10.0 mi SSW 4.6 mph - N/A   Mostly Cloudy
1:35 PM 68.0 °F 55.4 °F 64% 29.94 in 10.0 mi SSW 9.2 mph - N/A   Scattered Clouds
1:55 PM 66.2 °F 55.4 °F 68% 29.94 in 10.0 mi South 3.5 mph - N/A   Overcast
2:15 PM 66.2 °F 55.4 °F 68% 29.93 in 10.0 mi SSW 9.2 mph - N/A   Light Drizzle
2:35 PM 69.8 °F 55.4 °F 60% 29.94 in 10.0 mi SW 3.5 mph - N/A   Scattered Clouds
2:55 PM 66.2 °F 55.4 °F 68% 29.94 in 10.0 mi Calm Calm - N/A   Mostly Cloudy
3:15 PM 66.2 °F 55.4 °F 68% 29.94 in 10.0 mi South 4.6 mph - N/A   Scattered Clouds
3:35 PM 66.2 °F 55.4 °F 68% 29.94 in 10.0 mi South 4.6 mph - N/A   Scattered Clouds
3:55 PM 66.2 °F 55.4 °F 68% 29.95 in 10.0 mi South 4.6 mph - N/A   Clear
4:15 PM 64.4 °F 55.4 °F 73% 29.95 in 10.0 mi South 4.6 mph - N/A   Mostly Cloudy
4:35 PM 64.4 °F 55.4 °F 73% 29.95 in 10.0 mi Calm Calm - N/A   Overcast
4:55 PM 62.6 °F 55.4 °F 77% 29.96 in 10.0 mi Calm Calm - N/A   Overcast
5:15 PM 62.6 °F 55.4 °F 77% 29.96 in 10.0 mi Calm Calm - N/A   Overcast
5:35 PM 60.8 °F 55.4 °F 82% 29.97 in 10.0 mi Calm Calm - N/A   Overcast
5:55 PM 60.8 °F 55.4 °F 82% 29.97 in 10.0 mi Calm Calm - N/A   Overcast
6:15 PM 60.8 °F 55.4 °F 82% 29.98 in 10.0 mi Calm Calm - N/A   Overcast
6:35 PM 60.8 °F 55.4 °F 82% 29.98 in 10.0 mi Calm Calm - N/A   Overcast
6:55 PM 60.8 °F 55.4 °F 82% 29.98 in 10.0 mi Calm Calm - N/A   Overcast
7:15 PM 60.8 °F 55.4 °F 82% 29.98 in 10.0 mi Calm Calm - N/A   Overcast
7:35 PM 60.8 °F 55.4 °F 82% 29.98 in 10.0 mi Calm Calm - N/A   Overcast
7:55 PM 57.2 °F 55.4 °F 94% 29.98 in 10.0 mi Calm Calm - N/A   Overcast
8:15 PM 57.2 °F 55.4 °F 94% 29.98 in 10.0 mi Calm Calm - N/A   Overcast
8:35 PM 59.0 °F 55.4 °F 88% 29.98 in 10.0 mi WSW 4.6 mph - N/A   Overcast
8:55 PM 62.6 °F 57.2 °F 82% 29.98 in 10.0 mi SSW 8.1 mph - N/A   Mostly Cloudy
9:15 PM 62.6 °F 57.2 °F 82% 29.98 in 10.0 mi SSW 10.4 mph 18.4 mph N/A   Scattered Clouds
9:35 PM 62.6 °F 57.2 °F 82% 29.99 in 10.0 mi SSW 6.9 mph 18.4 mph N/A   Mostly Cloudy
9:55 PM 64.4 °F 57.2 °F 77% 29.99 in 10.0 mi South 5.8 mph - N/A   Overcast
10:15 PM 62.6 °F 57.2 °F 82% 29.99 in 10.0 mi South 6.9 mph - N/A   Mostly Cloudy
10:35 PM 62.6 °F 57.2 °F 82% 30.00 in 10.0 mi South 8.1 mph - N/A   Mostly Cloudy
10:55 PM 62.6 °F 57.2 °F 82% 30.00 in 10.0 mi SSW 5.8 mph - N/A   Scattered Clouds
11:15 PM 60.8 °F 57.2 °F 88% 30.00 in 10.0 mi SSE 4.6 mph - N/A   Scattered Clouds
11:35 PM 60.8 °F 57.2 °F 88% 30.00 in 10.0 mi Calm Calm - N/A   Mostly Cloudy
11:55 PM 60.8 °F 57.2 °F 88% 30.00 in 10.0 mi SSE 3.5 mph - N/A   Overcast